Voltar ao catálogo

STARLINK-2292

AtivoComunicaçõesVLEO
NORAD 48023·PAYLOAD·🇺🇸 United States

Lançado Mar 24, 2021 de Cape Canaveral Space Force Station

Loading…

Próximas Passagens (próximas 24 horas)

TLE

AtualizadoSource: CelesTrak SupGP

Época: Sep 14, 2026, 20:56 UTC

1 48023C 21024AY  26257.87270833  .00028060  00000+0  44929-3 0  2579
2 48023  53.1125 155.8667 0001740 172.4145  69.6716 15.52489635    14

Acompanhe STARLINK-2292 em tempo real com AllMySat

Download on the App Store